Pinball Nirvana Home Page

Go Back   Pinball Nirvana Forums > Downloads > Pinball Machines

Latest Files
Latest Files
Springfield
Strange Magic
Dumbo
Ever After High (2.0)
Pinky and the Brain (Special Edition 1.5),
Ben Ten (1.5)
Toy Story (1.5)
Bugs bunny (1.5)
Space Ship - Williams 1961 - VP9
Space Ship - Williams 1961 - VP8
Rocket Ship - Gottlieb 1958 - VP9
Rocket Ship - Gottlieb 1958 - VP8
Shooting Star Jr., 1934 by Daval for VPX
HOUDINI
Top Card (Gottlieb) Vp 9.21
New Century, 1933 by Genco for VPX
Bally Beauty, 1952 by Bally Version 1.1 for VPX
ALIEN
Bright Lights, 1951 by Bally Version 1.3 for VPX
Frolics, 1952 by Bally for VPX
Broadway 51, 1951 by Bally Version 1.5 for VPX
Bonanza, 1935 by Exhibit Supply Co. for VPX
Rollet, 1931 by The Barok Co. for VPX
table starter
Mexican Baseball, 1947 by Daval ALT. 2 for VPX
Best Hand, 1947 by Daval for VPX
Cloverleaf, 1932 by Gottlieb Version 1.4 for VPX
Mexican Baseball , 1947 by Daval - VER. 1.6 for VP
Skiill Cards, 1952 by Giepen for VPX
shivaEngine 1.8
Most Popular Files
Most Popular Files
Top Contributors
Top Contributors

Pinball Nirvana Downloads
  • Download/Upload Your Pinball Files!
  • If you are uploading, Description Field: The first two entries in the description should be: Author(s): Version: (if any) That way the Author and version information will be displayed first on the table listing pages.
  
Navigation
Main | Category Tree | Stats | Search
Download File Date Downloads Comments
Downloads  1988sp :  (7.26 MB) 10-31-2014 64 0
Downloads  1989sp :  (10.90 MB) 10-31-2014 46 0
Downloads  1990sp1 :  (9.04 MB) 10-31-2014 44 0
Downloads  1990sp2 :  (9.09 MB) 10-31-2014 44 0
Downloads  1991sp1 :  (7.25 MB) 10-31-2014 46 0
Downloads  1991sp2 :  (5.43 MB) 10-31-2014 48 0
Downloads  1991sp3 :  (3.64 MB) 10-31-2014 48 0
Downloads  1992sp1 :  (8.98 MB) 10-31-2014 46 0
Downloads  1992sp2 :  (9.10 MB) 10-31-2014 44 0
Downloads  Addams_Family :  (6.98 MB) 10-31-2014 69 0
Downloads  Apollo13 :  (930.1 KB) 10-31-2014 49 0
Downloads  Attack_From_Mars :  (7.11 MB) 10-31-2014 64 0
Downloads  Austin :  (931.4 KB) 10-31-2014 49 0
Downloads  Bad_Cats :  (2.73 MB) 10-31-2014 51 0
Downloads  Banzai :  (1.82 MB) 10-31-2014 46 0
Downloads  Batforever :  (2.73 MB) 10-31-2014 42 0
Downloads  batman :  (3.64 MB) 10-31-2014 55 0
Downloads  Baywatch :  (2.73 MB) 10-31-2014 55 0
Downloads  BigBangBar :  (9.01 MB) 10-31-2014 47 0
Downloads  Black_Knight_2000 :  (2.73 MB) 10-31-2014 50 0
Downloads  Black_Rose :  (4.54 MB) 10-31-2014 47 0
Downloads  BTTF :  (4.09 MB) 10-31-2014 47 0
Downloads  Cactus_Canyon :  (1.82 MB) 10-31-2014 48 0
Downloads  Champion_Pub :  (12.22 MB) 10-31-2014 48 0
Downloads  Checkpoint :  (5.45 MB) 10-31-2014 49 0
Downloads  Cirqus_Voltaire :  (6.06 MB) 10-31-2014 52 0
Downloads  Congo :  (1.82 MB) 10-31-2014 44 0
Downloads  Corvette :  (1.82 MB) 10-31-2014 46 0
Downloads  creature :  (2.27 MB) 10-31-2014 45 0
Downloads  Crypt :  (2.73 MB) 10-31-2014 41 0
Downloads  cyclone :  (4.10 MB) 10-31-2014 55 0
Downloads  Demolition_Man :  (4.55 MB) 10-31-2014 51 0
Downloads  Diner :  (3.64 MB) 10-31-2014 49 0
Downloads  Dirty_Harry :  (1.82 MB) 10-31-2014 44 0
Downloads  Doctor_Who :  (932.6 KB) 10-31-2014 45 0
Downloads  Dracula :  (3.18 MB) 10-31-2014 48 0
Downloads  Dude :  (2.73 MB) 10-31-2014 47 0
Downloads  Earthshaker :  (5.92 MB) 10-31-2014 46 0
Downloads  EATPM :  (4.55 MB) 10-31-2014 45 0
Downloads  Fish_Tales :  (5.46 MB) 10-31-2014 44 0
Downloads  Flintstones :  (932.7 KB) 10-31-2014 44 0
Downloads  frankenstein :  (2.73 MB) 10-31-2014 45 0
Downloads  funhouse :  (3.63 MB) 10-31-2014 53 0
Downloads  funhousemix :  (4.02 MB) 10-31-2014 48 0
Downloads  Game_Show :  (3.19 MB) 10-31-2014 42 0
Downloads  Getaway :  (2.72 MB) 10-31-2014 49 0
Downloads  Gilligans_Island :  (4.08 MB) 10-31-2014 52 0
Downloads  godzilla :  (928.1 KB) 10-31-2014 41 0
Downloads  Goldeneye :  (929.0 KB) 10-31-2014 49 0
Downloads  GunsRoses :  (2.73 MB) 10-31-2014 48 0
Downloads  Hiroller :  (933.0 KB) 10-31-2014 42 0
Downloads  hook :  (3.64 MB) 10-31-2014 43 0
Downloads  Hurricane :  (5.00 MB) 10-31-2014 44 0
Downloads  ID4 :  (932.9 KB) 10-31-2014 39 0
Downloads  Indiana_Jones :  (2.73 MB) 10-31-2014 52 0
Downloads  Indy_500 :  (2.28 MB) 10-31-2014 42 0
Downloads  Jackbot :  (2.73 MB) 10-31-2014 43 0
Downloads  Johnny :  (1.82 MB) 10-31-2014 38 0
Downloads  Jokerz :  (4.55 MB) 10-31-2014 39 0
Downloads  Jurassic_park :  (2.73 MB) 10-31-2014 50 0
Downloads  LastHero :  (2.73 MB) 10-31-2014 41 0
Downloads  Lethal_weapon_3 :  (2.73 MB) 10-31-2014 44 0
Downloads  Lord_Of_The_Rings :  (3.22 MB) 10-31-2014 44 0
Downloads  lostinspace :  (931.9 KB) 10-31-2014 43 0
Downloads  Machine :  (4.54 MB) 10-31-2014 43 0
Downloads  mars :  (4.55 MB) 10-31-2014 40 0
Downloads  Maverick :  (2.73 MB) 10-31-2014 44 0
Downloads  Medieval :  (5.46 MB) 10-31-2014 46 0
Downloads  Monopoly :  (933.3 KB) 10-31-2014 46 0
Downloads  Monster_Bash :  (6.67 MB) 10-31-2014 40 0
Downloads  Mousin :  (4.10 MB) 10-31-2014 42 0
Downloads  MysteryCastle :  (2.73 MB) 10-31-2014 43 0
Downloads  NBA :  (1.82 MB) 10-31-2014 40 0
Downloads  NFL :  (931.4 KB) 10-31-2014 38 0
Downloads  NGG :  (933.2 KB) 10-31-2014 38 0
Downloads  No Fear :  (3.18 MB) 10-31-2014 43 0
Downloads  Party_Zone :  (4.55 MB) 10-31-2014 44 0
Downloads  playboy :  (933.5 KB) 10-31-2014 48 0
Downloads  Police_Force :  (4.09 MB) 10-31-2014 51 0
Downloads  pstlpokr :  (933.5 KB) 10-31-2014 37 0
Downloads  Radical :  (4.55 MB) 10-31-2014 51 0
Downloads  rct :  (933.2 KB) 10-31-2014 44 0
Downloads  Riverboat :  (4.10 MB) 10-31-2014 36 0
Downloads  Road_show :  (5.46 MB) 10-31-2014 43 0
Downloads  Rockbull :  (2.73 MB) 10-31-2014 40 0
Downloads  Rollergames :  (4.10 MB) 10-31-2014 45 0
Downloads  Safe_Cracker :  (4.55 MB) 10-31-2014 41 0
Downloads  scared_stiff :  (4.55 MB) 10-31-2014 45 0
Downloads  Shadow :  (2.73 MB) 10-31-2014 46 0
Downloads  Sharkey :  (933.1 KB) 10-31-2014 39 0
Downloads  Simpinprty :  (933.0 KB) 10-31-2014 36 0
Downloads  Simpsons :  (3.18 MB) 10-31-2014 52 0
Downloads  Simpsons_Pinball_Party :  (4.18 MB) 10-31-2014 45 0
Downloads  Star_wars :  (2.73 MB) 10-31-2014 49 0
Downloads  Startrek25 :  (2.73 MB) 10-31-2014 45 0
Downloads  Striker :  (931.0 KB) 10-31-2014 41 0
Downloads  Taxi :  (4.10 MB) 10-31-2014 51 0
Downloads  Terminator2 :  (3.63 MB) 10-31-2014 64 0
Downloads  Terminator3 :  (932.5 KB) 10-31-2014 45 0
Downloads  TMNT :  (3.64 MB) 10-31-2014 45 0
Downloads  Tommy :  (2.73 MB) 10-31-2014 45 0
Downloads  totan :  (1.82 MB) 10-31-2014 48 0
Downloads  Twilight_Zone :  (5.46 MB) 10-31-2014 51 0
Downloads  Twister :  (932.5 KB) 10-31-2014 46 0
Downloads  WCS_94 :  (2.28 MB) 10-31-2014 38 0
Downloads  whirlwind :  (3.18 MB) 10-31-2014 47 0
Downloads  whitewater :  (4.55 MB) 10-31-2014 46 0
Downloads  Worldtour :  (2.73 MB) 10-31-2014 40 0
Downloads  WWF :  (1.82 MB) 10-31-2014 43 0
Downloads  WWF Pinball Sound Rip : the sound effects and music from WWF pinball. i was going to use these but changed my mind :headscratch: (11.64 MB) 10-24-2018 14 0
Downloads  Xfiles :  (932.2 KB) 10-31-2014 50 0




DownloadsII 5.1.2 by CyberRanger & Jelle
Based on ecDownloads 4.1 © Ronin

All times are GMT -4. The time now is 01:08 AM.


Powered by vBulletin® Version 3.8.9
Copyright ©2000 - 2020, vBulletin Solutions, Inc.
Template-Modifications by TMS